Weather History for KGLH - January, 2013

Change the Weather History Date:

Wednesday, January 2, 2013

  Actual Average Record
Temperature  
Mean Temperature 36 °F 43 °F  
Max Temperature 39 °F 52 °F 80 °F (1952)
Min Temperature 32 °F 34 °F 12 °F (1928)
Degree Days  
Heating Degree Days 29 22  
Month to date heating degree days 50 44  
Since 1 July heating degree days 1020 1128  
Cooling Degree Days 0 0  
Month to date cooling degree days 0 0  
Year to date cooling degree days 0 0  
Moisture  
Dew Point 30 °F    
Average Humidity 78    
Maximum Humidity 92    
Minimum Humidity 64    
Precipitation  
Precipitation 0.00 in 0.15 in 3.71 in (1937)
Month to date precipitation 1.01 0.28  
Year to date precipitation 1.01 0.28  
Sea Level Pressure  
Sea Level Pressure 30.26 in    
Wind  
Wind Speed 9 mph (North)    
Max Wind Speed 14 mph    
Max Gust Speed -    
Visibility 10 miles    
Events      
T = Trace of Precipitation, MM = Missing Value Source: NWS Daily Summary

Daily Weather History Graph

Daily Weather History Graph

Search for Another Location

Airport or City:

Trip Planner

Search our weather history database for the weather conditions in past years. The results will help you decide how hot, cold, wet, or windy it might be!

Date:

Astronomy

Jan. 02, 2013 Rise Set
Actual Time 7:08 AM CST 5:08 PM CST
Civil Twilight 6:40 AM CST 5:35 PM CST
Nautical Twilight 6:10 AM CST 6:06 PM CST
Astronomical Twilight 5:39 AM CST 6:36 PM CST
Moon 10:23 PM CST (1/2) 10:06 AM CST (1/2)
Length of Visible Light 10h 54m
Length of Day
9h 59m
Waning Gibbous, 75% of the Moon is Illuminated
Jan 2
Waning Gibbous
Jan 4
Last Quarter
Jan 11
New
Jan 18
First Quarter
Jan 26
Full

Hourly Weather History & Observations

Time (CST) Temp. Windchill Dew Point Humidity Pressure Visibility Wind Dir Wind Speed Gust Speed Precip Events Conditions
12:01 AM 37.4 °F 30.3 °F 33.8 °F 87% 30.19 in 10.0 mi North 10.4 mph - N/A   Mostly Cloudy
12:15 AM 37.4 °F 30.8 °F 33.8 °F 87% 30.20 in 10.0 mi North 9.2 mph - N/A   Scattered Clouds
12:53 AM 36.0 °F 29.0 °F 33.1 °F 89% 30.21 in 10.0 mi North 9.2 mph - N/A   Clear
1:53 AM 37.0 °F 30.4 °F 34.0 °F 89% 30.23 in 10.0 mi North 9.2 mph - N/A   Clear
2:53 AM 36.0 °F 28.5 °F 33.1 °F 89% 30.25 in 10.0 mi North 10.4 mph - N/A   Mostly Cloudy
3:45 AM 35.6 °F 28.0 °F 33.8 °F 93% 30.21 in 10.0 mi North 10.4 mph - N/A   Scattered Clouds
3:53 AM 36.0 °F 28.5 °F 33.1 °F 89% 30.24 in 10.0 mi North 10.4 mph - N/A   Mostly Cloudy
4:48 AM 35.6 °F 27.5 °F 28.4 °F 75% 30.22 in 10.0 mi North 11.5 mph - N/A   Scattered Clouds
4:53 AM 35.1 °F 26.4 °F 28.9 °F 78% 30.26 in 10.0 mi North 12.7 mph - N/A   Partly Cloudy
5:53 AM 33.1 °F 23.4 °F 28.9 °F 85% 30.27 in 10.0 mi North 13.8 mph - N/A   Clear
6:53 AM 33.1 °F 24.9 °F 28.0 °F 82% 30.27 in 10.0 mi North 10.4 mph - N/A   Clear
7:53 AM 32.0 °F 23.0 °F 28.0 °F 85% 30.29 in 9.0 mi North 11.5 mph - N/A   Clear
8:53 AM 33.1 °F 24.9 °F 28.0 °F 82% 30.30 in 9.0 mi North 10.4 mph - N/A   Clear
9:53 AM 33.1 °F 24.4 °F 28.0 °F 82% 30.31 in 9.0 mi North 11.5 mph - N/A   Clear
10:53 AM 34.0 °F 26.6 °F 28.0 °F 79% 30.31 in 9.0 mi North 9.2 mph - N/A   Clear
11:53 AM 35.1 °F 27.9 °F 27.0 °F 72% 30.28 in 10.0 mi North 9.2 mph - N/A   Clear
12:53 PM 36.0 °F 29.0 °F 28.0 °F 73% 30.26 in 10.0 mi North 9.2 mph - N/A   Clear
1:53 PM 36.0 °F 30.3 °F 28.0 °F 73% 30.25 in 10.0 mi North 6.9 mph - N/A   Clear
2:53 PM 36.0 °F 30.3 °F 25.0 °F 64% 30.27 in 10.0 mi NNE 6.9 mph - N/A   Clear
3:53 PM 36.0 °F 32.1 °F 26.1 °F 67% 30.29 in 10.0 mi NE 4.6 mph - N/A   Clear
4:53 PM 35.6 °F 32.8 °F 28.4 °F 75% 30.26 in 10.0 mi NE 3.5 mph - N/A   Clear